KD2VWU Weather Reports


Display with metric or nautical units.
time (UTC)temp
F
wind
direction
speed
MPH
gust
MPH
rain 1hr
in
rain 24hr
in
rain mn
in
humidity
%
barometer
mb
20260509124611 50 61 0.0 0.0 0.00 0.01 0.01 99 1009.7
20260509124108 50 48 0.0 1.0 0.00 0.01 0.01 99 1009.9
20260509123606 50 76 0.0 0.0 0.00 0.01 0.01 99 1010.1
20260509123103 50 64 0.0 0.0 0.00 0.01 0.01 99 1009.7
20260509122558 50 64 0.0 0.0 0.00 0.01 0.01 99 1009.6
20260509122056 49 64 0.0 0.0 0.00 0.01 0.01 99 1009.9
20260509121552 49 55 0.0 1.0 0.00 0.01 0.01 99 1009.8
20260509121050 49 62 0.0 0.0 0.00 0.01 0.01 99 1010.2
20260509120548 49 62 0.0 0.0 0.00 0.01 0.01 99 1010.5
20260509120046 49 64 0.0 0.0 0.00 0.01 0.01 99 1010.4
20260509115543 49 66 0.0 0.0 0.00 0.01 0.01 99 1010.5
20260509115041 48 55 0.0 0.0 0.00 0.01 0.01 99 1010.6
20260509114538 48 29 0.0 0.0 0.00 0.01 0.01 99 1010.5
20260509114037 48 61 0.0 0.0 0.00 0.01 0.01 99 1010.3
20260509113535 48 58 0.0 0.0 0.00 0.01 0.01 99 1010.2
20260509113033 48 58 0.0 0.0 0.00 0.01 0.01 99 1010.3
20260509112529 48 61 0.0 0.0 0.00 0.01 0.01 99 1010.5
20260509112026 48 59 0.0 0.0 0.00 0.01 0.01 99 1010.2
20260509111523 48 60 0.0 0.0 0.00 0.01 0.01 99 1010.5
20260509111020 48 50 1.0 1.0 0.00 0.01 0.01 99 1009.9
20260509110516 48 57 1.0 1.0 0.00 0.01 0.01 99 1010.2
20260509110014 48 56 0.0 0.0 0.00 0.01 0.01 99 1010.3
20260509105512 48 56 0.0 0.0 0.00 0.01 0.01 99 1010.2
20260509105009 48 55 0.0 0.0 0.00 0.01 0.01 99 1010.2
20260509104506 48 45 1.0 1.0 0.00 0.01 0.01 99 1010.1
20260509104003 48 57 0.0 0.0 0.00 0.01 0.01 99 1009.9
20260509103501 48 65 1.0 1.0 0.00 0.01 0.01 99 1009.9
20260509102959 47 45 1.0 1.0 0.00 0.01 0.01 99 1009.9
20260509102456 48 57 0.0 1.0 0.00 0.01 0.01 99 1009.6
20260509101952 48 50 1.0 1.0 0.00 0.01 0.01 99 1009.9
20260509101449 48 50 0.0 1.0 0.00 0.01 0.01 99 1009.9
20260509100946 48 21 1.0 1.0 0.00 0.01 0.01 99 1009.8
20260509100443 48 60 0.0 0.0 0.00 0.01 0.01 99 1009.5
20260509095939 48 57 0.0 1.0 0.00 0.01 0.01 99 1009.8
20260509095436 48 51 0.0 0.0 0.00 0.01 0.01 99 1009.5
20260509094934 48 53 0.0 0.0 0.00 0.01 0.01 99 1009.9
20260509094430 48 59 0.0 0.0 0.00 0.01 0.01 99 1009.6
20260509093928 48 52 0.0 0.0 0.00 0.01 0.01 99 1009.8
20260509093425 48 33 0.0 1.0 0.00 0.01 0.01 99 1009.8
20260509092923 48 32 0.0 1.0 0.00 0.01 0.01 99 1009.8
20260509092421 48 52 0.0 0.0 0.00 0.01 0.01 99 1009.8
20260509091919 48 52 0.0 0.0 0.00 0.01 0.01 99 1009.9
20260509091416 48 39 0.0 0.0 0.00 0.01 0.01 99 1009.6
20260509090913 48 46 0.0 0.0 0.00 0.01 0.01 99 1009.9
20260509090410 48 28 1.0 1.0 0.00 0.01 0.01 99 1009.8
20260509085908 48 47 0.0 0.0 0.00 0.01 0.01 99 1009.8
20260509085405 48 50 0.0 0.0 0.00 0.01 0.01 99 1009.6
20260509084900 48 57 0.0 1.0 0.00 0.01 0.01 99 1009.5
20260509084357 48 58 0.0 1.0 0.00 0.01 0.01 99 1009.8
20260509083855 48 36 0.0 1.0 0.00 0.01 0.01 98 1009.8
20260509083352 48 53 0.0 0.0 0.00 0.01 0.01 98 1009.9
20260509082849 48 52 0.0 0.0 0.00 0.01 0.01 98 1009.8
20260509082345 48 60 0.0 0.0 0.00 0.01 0.01 98 1009.8
20260509081843 48 38 1.0 1.0 0.00 0.01 0.01 98 1009.9
20260509081340 48 54 0.0 0.0 0.00 0.01 0.01 97 1010.1
20260509080838 48 60 0.0 0.0 0.05 0.01 0.01 97 1009.8
20260509080335 48 53 0.0 0.0 0.05 0.01 0.01 97 1009.8
20260509075833 48 53 0.0 0.0 0.00 0.00 0.00 97 1009.7
20260509075330 48 53 0.0 0.0 0.00 0.00 0.00 97 1009.9
20260509074827 48 53 0.0 0.0 0.00 0.00 0.00 97 1010.1
20260509074325 48 30 0.0 0.0 0.00 0.00 0.00 97 1010.1
20260509073821 48 53 0.0 0.0 0.00 0.00 0.00 97 1009.9
20260509073317 48 57 0.0 0.0 0.00 0.00 0.00 96 1010.1
20260509072814 48 53 0.0 0.0 0.00 0.00 0.00 96 1009.7
20260509072311 48 59 0.0 0.0 0.00 0.00 0.00 96 1009.5
20260509071807 48 54 0.0 0.0 0.00 0.00 0.00 96 1009.5
20260509071305 48 54 0.0 0.0 0.00 0.00 0.00 96 1009.8
20260509070802 48 54 0.0 0.0 0.00 0.00 0.00 96 1009.8
20260509070258 48 48 0.0 0.0 0.00 0.00 0.00 96 1009.7
20260509065754 48 48 0.0 0.0 0.00 0.00 0.00 95 1010.1
20260509065251 48 36 0.0 0.0 0.00 0.00 0.00 95 1009.7
20260509064747 48 59 0.0 0.0 0.00 0.00 0.00 94 1010.1
20260509064244 48 59 0.0 0.0 0.00 0.00 0.00 94 1010.1
20260509063742 48 60 0.0 0.0 0.00 0.00 0.00 94 1010.1
20260509063238 48 60 0.0 0.0 0.00 0.00 0.00 94 1009.8
20260509062735 48 60 0.0 0.0 0.00 0.00 0.00 94 1010.1
20260509062232 48 61 0.0 0.0 0.00 0.00 0.00 94 1009.9
20260509061729 48 60 0.0 0.0 0.00 0.00 0.00 94 1010.3
20260509061227 48 60 0.0 0.0 0.00 0.00 0.00 93 1010.3
20260509060724 48 60 0.0 0.0 0.00 0.00 0.00 93 1010.1
20260509060221 48 60 0.0 0.0 0.00 0.00 0.00 92 1010.3
20260509055716 48 58 0.0 0.0 0.00 0.00 0.00 92 1010.4
20260509055212 48 58 0.0 0.0 0.00 0.00 0.00 91 1010.6
20260509054709 48 56 0.0 1.0 0.00 0.00 0.00 91 1010.4
20260509054206 49 56 0.0 0.0 0.00 0.00 0.00 91 1010.2
20260509053705 48 55 0.0 0.0 0.00 0.00 0.00 90 1010.6
20260509053201 48 54 0.0 0.0 0.00 0.00 0.00 89 1010.6
20260509052659 48 54 0.0 0.0 0.00 0.00 0.00 89 1010.7
20260509052156 48 54 0.0 0.0 0.00 0.00 0.00 89 1010.6
20260509051654 48 54 0.0 0.0 0.00 0.00 0.00 89 1010.5
20260509051151 48 55 0.0 0.0 0.00 0.00 0.00 89 1010.4
20260509050648 48 54 0.0 0.0 0.00 0.00 0.00 91 1010.4
20260509050145 48 55 0.0 0.0 0.00 0.00 0.00 91 1010.1
20260509045643 49 55 0.0 0.0 0.00 0.00 0.00 91 1010.3
20260509045139 49 55 0.0 0.0 0.00 0.00 0.00 92 1010.4
20260509044636 49 55 0.0 0.0 0.00 0.00 0.00 91 1010.5
20260509044134 49 55 0.0 0.0 0.00 0.00 0.00 91 1010.5
20260509043630 49 53 0.0 1.0 0.00 0.00 0.00 91 1010.5
20260509043126 49 30 0.0 1.0 0.00 0.00 0.00 91 1010.7
20260509042623 49 127 0.0 0.0 0.00 0.00 0.00 91 1010.6
20260509042118 49 127 0.0 0.0 0.00 0.00 0.00 90 1010.8
20260509041615 49 127 0.0 0.0 0.00 0.00 0.00 91 1010.7
20260509041113 49 127 0.0 0.0 0.00 0.00 0.00 90 1010.4
20260509040611 49 127 0.0 0.0 0.00 0.00 0.00 91 1010.4
20260509040108 49 127 0.0 0.0 0.00 0.11 0.11 90 1010.7
20260509035604 49 127 0.0 1.0 0.00 0.11 0.11 89 1010.6
20260509035101 49 128 0.0 0.0 0.00 0.11 0.11 88 1010.7
20260509034559 49 137 0.0 0.0 0.00 0.11 0.11 88 1010.7
20260509034056 49 137 0.0 1.0 0.00 0.11 0.11 89 1010.5
20260509033553 49 138 0.0 0.0 0.00 0.11 0.11 90 1010.7
20260509033050 49 138 0.0 0.0 0.00 0.11 0.11 90 1010.9
20260509032547 49 138 0.0 0.0 0.00 0.11 0.11 91 1010.8
20260509032044 49 142 1.0 1.0 0.00 0.11 0.11 90 1010.3
20260509031542 49 139 0.0 0.0 0.00 0.11 0.11 90 1010.6
20260509031039 49 145 0.0 0.0 0.00 0.11 0.11 90 1010.5
20260509030537 49 195 0.0 1.0 0.00 0.11 0.11 90 1010.6
20260509030033 49 245 1.0 1.0 0.00 0.11 0.11 89 1010.4
20260509025530 49 88 0.0 1.0 0.00 0.11 0.11 89 1010.4
20260509025025 49 173 1.0 1.0 0.00 0.11 0.11 88 1010.5
20260509024521 49 106 0.0 0.0 0.00 0.11 0.11 87 1010.4
20260509024018 49 149 0.0 1.0 0.00 0.11 0.11 87 1010.3
20260509023516 50 186 1.0 1.0 0.00 0.11 0.11 87 1010.3
20260509023012 50 80 0.0 0.0 0.00 0.11 0.11 86 1010.1
20260509022509 50 78 0.0 0.0 0.00 0.11 0.11 82 1009.8
20260509022006 50 87 0.0 0.0 0.00 0.11 0.11 82 1010.2
20260509021503 50 79 0.0 0.0 0.00 0.11 0.11 85 1010.2
20260509021000 50 64 0.0 0.0 0.00 0.11 0.11 85 1010.2
20260509020459 50 64 0.0 0.0 0.00 0.11 0.11 84 1009.9
20260509015955 50 67 0.0 0.0 0.00 0.11 0.11 83 1009.8
20260509015454 50 68 0.0 0.0 0.00 0.11 0.11 81 1009.7
20260509014950 50 67 0.0 0.0 0.00 0.11 0.11 81 1009.7
20260509014447 50 62 0.0 0.0 0.00 0.11 0.11 79 1009.7
20260509013943 50 62 0.0 0.0 0.00 0.11 0.11 79 1009.6
20260509013441 50 61 0.0 0.0 0.00 0.11 0.11 78 1009.7
20260509012937 50 61 0.0 0.0 0.00 0.11 0.11 76 1009.7
20260509012433 50 30 1.0 1.0 0.00 0.11 0.11 76 1009.7
20260509011930 50 85 0.0 0.0 0.00 0.11 0.11 75 1009.7
20260509011427 50 87 0.0 0.0 0.00 0.11 0.11 75 1009.8
20260509010925 50 98 0.0 0.0 0.00 0.11 0.11 73 1009.5
20260509010422 50 87 0.0 0.0 0.00 0.11 0.11 73 1009.7
20260509005919 51 105 0.0 0.0 0.00 0.11 0.11 73 1009.5
20260509005417 51 87 0.0 0.0 0.00 0.11 0.11 72 1009.5
20260509004917 51 105 0.0 0.0 0.00 0.11 0.11 72 1009.3
20260509004414 51 128 0.0 0.0 0.00 0.11 0.11 72 1009.1
20260509003912 51 106 0.0 0.0 0.00 0.11 0.11 72 1008.8
20260509003409 51 218 1.0 1.0 0.00 0.11 0.11 72 1008.9
20260509002906 51 115 0.0 0.0 0.00 0.11 0.11 73 1008.9
20260509002404 51 134 0.0 0.0 0.00 0.11 0.11 74 1008.9
20260509001901 51 219 1.0 1.0 0.00 0.11 0.11 73 1008.7
20260509001357 51 162 0.0 0.0 0.00 0.11 0.11 73 1008.9
20260509000854 52 169 1.0 1.0 0.00 0.11 0.11 71 1008.8
20260509000352 52 140 0.0 0.0 0.00 0.11 0.11 71 1008.7
20260508235848 53 140 0.0 0.0 0.00 0.11 0.11 70 1008.7
20260508235345 53 142 0.0 0.0 0.00 0.11 0.11 68 1008.6
20260508234842 54 142 0.0 0.0 0.00 0.11 0.11 69 1008.5
20260508234338 54 142 0.0 0.0 0.00 0.11 0.11 66 1008.5
20260508233837 54 182 1.0 1.0 0.00 0.11 0.11 65 1008.6
20260508233336 55 171 0.0 1.0 0.00 0.11 0.11 65 1008.5
20260508232833 55 195 1.0 1.0 0.00 0.11 0.11 64 1008.6
20260508232329 55 255 1.0 1.0 0.00 0.11 0.11 67 1008.5
20260508231828 55 224 1.0 2.0 0.00 0.11 0.11 68 1008.7
20260508231324 55 284 1.0 1.0 0.00 0.11 0.11 66 1008.6
20260508230820 55 303 1.0 1.0 0.00 0.11 0.11 65 1008.7
20260508230317 55 239 2.0 2.0 0.00 0.11 0.11 65 1008.3
20260508225815 55 242 1.0 1.0 0.00 0.11 0.11 67 1008.1
20260508225311 56 223 1.0 1.0 0.00 0.11 0.11 64 1008.2
20260508224809 56 272 1.0 2.0 0.00 0.11 0.11 63 1008.2
20260508224306 56 237 1.0 2.0 0.00 0.11 0.11 62 1008.5
20260508223804 56 209 1.0 2.0 0.00 0.11 0.11 64 1008.3
20260508223301 56 230 1.0 2.0 0.00 0.11 0.11 65 1008.1
20260508222758 56 302 1.0 1.0 0.00 0.11 0.11 61 1008.1
20260508222255 56 270 1.0 2.0 0.00 0.11 0.11 64 1008.3
20260508221752 56 345 1.0 1.0 0.00 0.11 0.11 64 1008.3
20260508221248 57 21 0.0 0.0 0.00 0.11 0.11 63 1008.2
20260508220743 57 40 0.0 0.0 0.00 0.11 0.11 63 1008.1
20260508220241 57 1 0.0 1.0 0.00 0.11 0.11 62 1008.2
20260508215737 57 25 0.0 0.0 0.00 0.11 0.11 63 1008.3
20260508215234 57 24 0.0 0.0 0.00 0.11 0.11 61 1008.2
20260508214731 57 196 0.0 1.0 0.00 0.11 0.11 60 1008.3
20260508214228 58 348 1.0 2.0 0.00 0.11 0.11 62 1008.2
20260508213724 58 19 1.0 1.0 0.00 0.11 0.11 60 1008.4
20260508213221 58 335 1.0 2.0 0.00 0.11 0.11 60 1008.2
20260508212718 58 335 1.0 2.0 0.00 0.11 0.11 57 1008.3
20260508212214 59 1 3.0 3.0 0.00 0.11 0.11 59 1008.1
20260508211710 58 286 3.0 3.0 0.00 0.11 0.11 60 1008.3
20260508211205 58 339 1.0 1.0 0.00 0.11 0.11 61 1008.3
20260508210703 58 349 2.0 2.0 0.00 0.11 0.11 57 1008.4
20260508210200 58 228 3.0 5.0 0.00 0.11 0.11 58 1008.2
20260508205657 57 325 1.0 1.0 0.00 0.11 0.11 59 1008.4
20260508205153 58 255 3.0 3.0 0.00 0.11 0.11 59 1008.3
20260508204649 59 298 3.0 5.0 0.00 0.11 0.11 57 1008.2
20260508204146 58 220 3.0 3.0 0.00 0.11 0.11 56 1008.3
20260508203642 59 264 2.0 2.0 0.00 0.11 0.11 58 1008.3
20260508203138 59 295 1.0 2.0 0.00 0.11 0.11 57 1008.0
20260508202635 59 297 0.0 0.0 0.00 0.11 0.11 53 1008.0
20260508202132 59 286 4.0 5.0 0.00 0.11 0.11 62 1008.2
20260508201629 59 40 3.0 3.0 0.00 0.11 0.11 59 1008.1
20260508201125 58 265 1.0 2.0 0.00 0.11 0.11 59 1008.2
20260508200622 58 290 4.0 6.0 0.00 0.11 0.11 62 1008.5
20260508200118 57 10 1.0 2.0 0.00 0.11 0.11 61 1008.3
20260508195615 57 178 3.0 5.0 0.00 0.11 0.11 62 1008.4
20260508195111 56 199 3.0 3.0 0.00 0.11 0.11 65 1008.3
20260508194608 54 202 4.0 5.0 0.00 0.11 0.11 67 1008.3
20260508194105 52 251 1.0 2.0 0.00 0.11 0.11 68 1008.6
20260508193602 52 286 3.0 3.0 0.00 0.11 0.11 70 1008.8
20260508193059 52 261 2.0 3.0 0.00 0.11 0.11 67 1008.7
20260508192555 53 258 1.0 1.0 0.00 0.11 0.11 69 1008.7
20260508192052 53 285 4.0 5.0 0.00 0.11 0.11 67 1008.8
20260508191549 53 333 4.0 6.0 0.00 0.11 0.11 67 1009.0
20260508191046 53 263 3.0 5.0 0.00 0.11 0.11 67 1008.8
20260508190543 53 255 4.0 7.0 0.00 0.11 0.11 69 1009.0
20260508190039 53 185 5.0 6.0 0.00 0.11 0.11 72 1008.8
20260508185537 53 247 3.0 3.0 0.00 0.11 0.11 72 1008.8
20260508185034 53 253 2.0 2.0 0.00 0.11 0.11 74 1008.6
20260508184532 53 228 2.0 2.0 0.07 0.11 0.11 78 1008.6
20260508184028 53 214 2.0 2.0 0.07 0.11 0.11 78 1008.7
20260508183525 54 188 3.0 3.0 0.00 0.10 0.10 73 1008.4
20260508183021 54 36 1.0 1.0 0.05 0.10 0.10 73 1008.8
20260508182517 54 216 2.0 2.0 0.05 0.10 0.10 71 1008.2
20260508182014 55 45 5.0 7.0 0.00 0.09 0.09 62 1008.3
20260508181509 56 215 3.0 3.0 0.00 0.09 0.09 56 1008.5
20260508181007 56 280 3.0 3.0 0.00 0.09 0.09 56 1008.2
20260508180503 57 145 4.0 6.0 0.00 0.09 0.09 56 1008.0
20260508175959 58 165 1.0 2.0 0.00 0.09 0.09 53 1008.1
20260508175456 57 342 2.0 2.0 0.00 0.09 0.09 59 1008.1
20260508174954 56 291 2.0 2.0 0.00 0.09 0.09 55 1008.0
20260508174451 55 298 3.0 3.0 0.00 0.09 0.09 57 1008.3
20260508173948 55 288 3.0 3.0 0.00 0.09 0.09 59 1008.4
20260508173445 55 328 1.0 2.0 0.00 0.09 0.09 65 1008.4
20260508172941 54 311 1.0 1.0 0.00 0.09 0.09 65 1008.4
20260508172438 54 27 1.0 2.0 0.00 0.09 0.09 64 1008.6
20260508171935 54 329 1.0 1.0 0.00 0.09 0.09 69 1008.7
20260508171431 54 202 2.0 3.0 0.00 0.09 0.09 68 1008.7
20260508170928 54 343 3.0 3.0 0.00 0.09 0.09 62 1008.7
20260508170425 54 69 2.0 3.0 0.00 0.09 0.09 60 1008.4
20260508165922 54 272 2.0 2.0 0.00 0.09 0.09 60 1008.6
20260508165420 54 296 1.0 2.0 0.00 0.09 0.09 58 1008.5
20260508164915 55 223 1.0 1.0 0.00 0.09 0.09 57 1008.4
20260508164413 55 252 1.0 2.0 0.00 0.09 0.09 54 1008.2
20260508163910 55 239 2.0 3.0 0.00 0.09 0.09 52 1008.4
20260508163408 56 246 1.0 1.0 0.00 0.09 0.09 57 1008.4
20260508162903 56 192 3.0 3.0 0.00 0.09 0.09 51 1008.4
20260508162401 56 287 1.0 2.0 0.00 0.09 0.09 54 1008.6
20260508161857 56 233 3.0 3.0 0.00 0.09 0.09 53 1008.5
20260508161355 56 261 3.0 5.0 0.00 0.09 0.09 54 1008.8
20260508160852 57 85 1.0 1.0 0.00 0.09 0.09 55 1008.7
20260508160350 57 344 1.0 2.0 0.00 0.09 0.09 52 1008.7
20260508155846 56 353 1.0 1.0 0.00 0.09 0.09 54 1008.7
20260508155344 55 288 2.0 2.0 0.00 0.09 0.09 51 1008.8
20260508154840 55 333 2.0 2.0 0.00 0.09 0.09 54 1008.8
20260508154338 55 275 2.0 2.0 0.00 0.09 0.09 54 1008.8
20260508153834 56 57 1.0 1.0 0.00 0.09 0.09 59 1008.9
20260508153332 57 289 1.0 2.0 0.00 0.09 0.09 53 1008.6
20260508152827 58 289 3.0 3.0 0.00 0.09 0.09 57 1008.7
20260508152324 57 334 3.0 3.0 0.00 0.09 0.09 49 1008.8
20260508151821 57 234 1.0 2.0 0.00 0.09 0.09 52 1008.9
20260508151318 56 275 2.0 2.0 0.00 0.09 0.09 57 1008.6
20260508150814 56 209 3.0 3.0 0.00 0.09 0.09 51 1008.8
20260508150311 56 69 0.0 0.0 0.00 0.09 0.09 57 1008.9
20260508145807 55 254 2.0 3.0 0.00 0.09 0.09 62 1009.1
20260508145306 55 107 1.0 2.0 0.00 0.09 0.09 62 1009.2
20260508144800 54 287 1.0 1.0 0.00 0.09 0.09 56 1009.2
20260508144258 55 308 2.0 3.0 0.00 0.09 0.09 61 1009.2
20260508143755 53 324 2.0 2.0 0.00 0.09 0.09 67 1009.2
20260508143252 53 211 0.0 1.0 0.00 0.09 0.09 65 1009.3
20260508142749 53 343 2.0 2.0 0.00 0.09 0.09 69 1009.5
20260508142246 53 256 2.0 2.0 0.00 0.09 0.09 68 1009.1
20260508141742 52 33 1.0 1.0 0.00 0.09 0.09 69 1009.2
20260508141240 51 100 1.0 1.0 0.00 0.09 0.09 67 1009.1
20260508140737 52 192 3.0 3.0 0.00 0.09 0.09 71 1009.1
20260508140233 51 333 3.0 3.0 0.00 0.09 0.09 73 1009.1
20260508135729 51 227 1.0 1.0 0.00 0.09 0.09 78 1009.1
20260508135226 51 358 1.0 1.0 0.00 0.09 0.09 73 1009.2
20260508134721 50 131 0.0 1.0 0.00 0.09 0.09 75 1009.2
20260508134219 50 199 1.0 2.0 0.00 0.09 0.09 74 1009.3
20260508133716 50 202 1.0 2.0 0.00 0.09 0.09 76 1009.4
20260508133214 50 35 2.0 2.0 0.00 0.09 0.09 77 1009.4
20260508132711 50 261 1.0 2.0 0.00 0.09 0.09 81 1009.3
20260508132208 49 2 0.0 0.0 0.00 0.09 0.09 81 1009.3
20260508131703 49 9 1.0 2.0 0.00 0.09 0.09 82 1009.5
20260508131200 49 270 1.0 1.0 0.00 0.09 0.09 84 1009.3
20260508130657 48 169 1.0 1.0 0.00 0.09 0.09 83 1009.4
20260508130154 48 53 0.0 0.0 0.00 0.09 0.09 87 1009.2
20260508125649 47 240 2.0 2.0 0.00 0.09 0.09 86 1009.3
20260508125146 47 31 1.0 1.0 0.00 0.09 0.09 88 1009.2